STARLINK-5675, 55340

Orbit data source: Space-Track

STARLINK-5675, 55340 is a payload satellite owned by SpaceX/Seattle (US) in LEO that was launched on Thu, 26 Jan 2023 UTC via an FALCON 9 launch vehicle from the Air Force Eastern Test Range (AFETR). Payload-class satellites include a variety of spacecraft equipped with specific instruments for various scientific and technological missions. These include communications satellites like Starlink; space stations such as the ISS; scientific satellites like the Hubble; Earth observation satellites from companies like Planet Labs, Umbra, and HawkEye 360; GPS; miniature CubeSats for education and research; and military/defense satellites.

Loading next visibility...
Identifier
55340, 2023-013K
Orbit
LEO
Country
Flag of USUS
Related business
Manufacturer
SpaceX/Seattle
Mission
Operational Commercial Communications
Bus & Motor
STARLINK, Unknown motor
Mass
305 kg wet, ~290 kg dry
Launch date (UTC)
2023-01-26 (3 years ago)
Launch vehicle
FALCON 9
Launch site
Air Force Eastern Test Range (AFETR)
Object type
Payload
Rocket body
Debris
Shape & HBR
Box + 1 Pan, 10.1 m
Radar Cross Section
13.562 m², Large (>1 m²)

Expand to show TLE details & history
Last TLE update: 1 day ago

TLE from 1 day ago
0 STARLINK-5675
1 55340U 23013K   25348.56219536  .00002944  00000-0  23283-3 0  9995
2 55340  43.0045  42.9288 0001579 264.0461  96.0202 15.02550948158904
Epoch: 2025-12-14T13:29Z
TLE epoch observation values (Epoch: 2025-12-14T13:29:33.679Z)
Latitude
0.00004°
Longitude
117.06518°
Altitude
558.927 km
Speed
7.584 km/s
True Right ascension
02h 51m 42s
True Declination
0° 00' 00"
Sunlit
Object was in full shadow at epoch
Visualization orbit readout
Latitude
Unknown
Longitude
Unknown
Altitude
Unknown
Speed
Unknown
Apparent Right ascension
Unknown
Apparent Declination
Unknown
Sunlit
N/A
Visualization observer readout
Local Sidereal Time
13:18:59
Azimuth
Unknown
Elevation
Unknown
Doppler factor
Unknown
Orbital elements
Apogee altitude
562.052 km
Perigee altitude
559.861 km
Semi-major axis
6,939.094 km
Eccentricity
0.00016
Inclination
43.0045°
RAAN
42.9288°
Arg. of periapsis
264.0461°
True anomaly
96.03819°
Mean anomaly
96.0202°
Eccentric anomaly
96.0292°
Mean motion
3.75482 °/min
Orbital period
95.88 mins
BSTAR
0.00023283
Loading maneuver chart data...
Computing Atmospheric mass density...
Loading historical data...
Loading historical data...
Loading historical data...
Loading historical data...
Loading historical data...
Loading historical data...
Loading historical data...

Documentation

Showing up to 5 results
|